TimeEST,TemperatureF,Dew PointF,Humidity,Sea Level PressureIn,VisibilityMPH,Wind Direction,Wind SpeedMPH,Gust SpeedMPH,PrecipitationIn,Events,Conditions,WindDirDegrees,DateUTC
12:54 AM,21.9,16.0,78,29.56,10.0,SSW,3.5,-,N/A,,Overcast,210,2013-01-05 05:54:00
1:54 AM,21.9,19.0,89,29.57,3.0,SW,4.6,-,0.00,Snow,Light Snow,230,2013-01-05 06:54:00
2:03 AM,21.2,19.4,93,29.52,2.5,WSW,4.6,-,0.00,Snow,Light Snow,240,2013-01-05 07:03:00
2:27 AM,23.0,19.4,86,29.52,1.5,WSW,3.5,-,0.01,Snow,Light Snow,250,2013-01-05 07:27:00
2:54 AM,23.0,19.9,88,29.56,1.8,Calm,Calm,-,0.01,Snow,Light Snow,0,2013-01-05 07:54:00
3:06 AM,21.2,19.4,93,29.52,2.5,Calm,Calm,-,0.00,Snow,Light Snow,0,2013-01-05 08:06:00
3:15 AM,23.0,19.4,86,29.52,1.2,Calm,Calm,-,0.00,Snow,Light Snow,0,2013-01-05 08:15:00
3:35 AM,23.0,19.4,86,29.52,1.0,Calm,Calm,-,0.00,Snow,Light Snow,0,2013-01-05 08:35:00
3:51 AM,23.0,19.4,86,29.53,1.8,WNW,4.6,-,0.01,Snow,Light Snow,300,2013-01-05 08:51:00
3:54 AM,23.0,19.9,88,29.57,1.8,WNW,3.5,-,0.01,Snow,Light Snow,300,2013-01-05 08:54:00
4:03 AM,23.0,19.4,86,29.53,1.0,WNW,4.6,-,0.00,Snow,Light Snow,290,2013-01-05 09:03:00
4:16 AM,23.0,19.4,86,29.54,1.5,WNW,4.6,-,0.01,Snow,Light Snow,300,2013-01-05 09:16:00
4:31 AM,23.0,19.4,86,29.55,1.2,NW,6.9,-,0.01,Snow,Light Snow,310,2013-01-05 09:31:00
4:54 AM,23.0,19.0,85,29.60,1.5,NW,6.9,-,0.01,Snow,Light Snow,310,2013-01-05 09:54:00
5:04 AM,21.2,19.4,93,29.56,1.0,NW,6.9,-,0.01,Snow,Light Snow,320,2013-01-05 10:04:00
5:13 AM,21.2,19.4,93,29.57,2.0,NNW,8.1,-,0.01,Snow,Light Snow,330,2013-01-05 10:13:00
5:19 AM,21.2,17.6,86,29.57,4.0,NW,6.9,-,N/A,Snow,Light Snow,310,2013-01-05 10:19:00
5:54 AM,21.0,18.0,88,29.64,8.0,West,3.5,-,0.01,,Overcast,260,2013-01-05 10:54:00
6:49 AM,21.2,17.6,86,29.65,3.0,NW,6.9,-,0.00,Snow,Light Snow,320,2013-01-05 11:49:00
6:54 AM,21.0,18.0,88,29.70,0.8,NNW,28.8,34.5,0.00,Snow,Light Snow,330,2013-01-05 11:54:00
6:57 AM,19.4,15.8,86,29.67,0.2,NNW,25.3,34.5,0.00,Fog-Snow,Heavy Snow,340,2013-01-05 11:57:00
7:28 AM,17.6,8.6,68,29.71,1.5,NW,24.2,33.4,N/A,Snow,Light Snow,320,2013-01-05 12:28:00
7:31 AM,17.6,8.6,68,29.71,2.0,NW,21.9,31.1,0.10,Snow,Light Snow,320,2013-01-05 12:31:00
7:40 AM,15.8,8.6,73,29.72,4.0,NW,19.6,31.1,0.10,,Overcast,320,2013-01-05 12:40:00
7:54 AM,16.0,9.0,74,29.79,7.0,NW,21.9,29.9,0.10,,Overcast,310,2013-01-05 12:54:00
8:14 AM,15.8,6.8,68,29.78,2.0,NW,21.9,33.4,0.01,,Overcast,320,2013-01-05 13:14:00
8:35 AM,14.0,5.0,67,29.80,3.0,NW,23.0,34.5,0.01,Snow,Blowing Snow,320,2013-01-05 13:35:00
8:54 AM,14.0,3.9,64,29.88,5.0,NW,21.9,31.1,0.01,Snow,Blowing Snow,310,2013-01-05 13:54:00
9:40 AM,12.2,5.0,73,29.88,5.0,NW,19.6,24.2,0.00,Snow,Light Snow,320,2013-01-05 14:40:00
9:54 AM,12.9,3.0,65,29.94,4.0,NW,20.7,31.1,0.00,Snow,Blowing Snow,320,2013-01-05 14:54:00
10:43 AM,12.2,1.4,62,29.94,10.0,NW,17.3,27.6,0.00,,Mostly Cloudy,310,2013-01-05 15:43:00
10:54 AM,12.9,-0.9,54,29.99,6.0,NW,23.0,32.2,0.00,,Mostly Cloudy,310,2013-01-05 15:54:00
11:54 AM,12.9,-0.9,54,30.00,10.0,NW,16.1,32.2,0.00,,Scattered Clouds,320,2013-01-05 16:54:00
12:54 PM,14.0,-0.9,52,30.01,10.0,NW,15.0,21.9,0.00,,Mostly Cloudy,310,2013-01-05 17:54:00
1:54 PM,12.9,-2.0,51,30.05,10.0,NW,13.8,32.2,N/A,,Clear,320,2013-01-05 18:54:00
2:54 PM,12.9,-4.0,47,30.09,10.0,NW,12.7,21.9,0.26,,Clear,320,2013-01-05 19:54:00
3:54 PM,10.9,-4.0,51,30.12,10.0,NW,9.2,-,N/A,,Clear,310,2013-01-05 20:54:00
4:54 PM,8.1,-5.1,55,30.14,10.0,NW,6.9,-,N/A,,Clear,310,2013-01-05 21:54:00
5:54 PM,5.0,-5.1,63,30.17,10.0,WNW,3.5,-,N/A,,Clear,290,2013-01-05 22:54:00
6:54 PM,3.9,-6.0,64,30.19,10.0,WNW,5.8,-,N/A,,Clear,300,2013-01-05 23:54:00
7:54 PM,3.9,-7.1,60,30.20,10.0,Calm,Calm,-,0.26,,Clear,0,2013-01-06 00:54:00
8:54 PM,1.0,-6.0,72,30.19,10.0,SW,4.6,-,N/A,,Clear,230,2013-01-06 01:54:00
9:54 PM,-0.9,-6.0,79,30.21,10.0,WSW,4.6,-,N/A,,Clear,250,2013-01-06 02:54:00
10:54 PM,-2.0,-7.1,79,30.20,10.0,WSW,4.6,-,N/A,,Clear,250,2013-01-06 03:54:00
11:54 PM,-2.0,-6.0,83,30.19,10.0,WSW,4.6,-,N/A,,Clear,240,2013-01-06 04:54:00